Triuchirapalli, India

8:50 AM IST on August 25, 2016 (GMT +0530)
Tiruchirappalli

Weather History for VOTR - January, 2013

Change the Weather History Date:

Thursday, January 17, 2013

  Actual Average Record
Temperature  
Mean Temperature 78 °F -  
Max Temperature 88 °F 85 °F 89 °F (2007)
Min Temperature 69 °F 72 °F 64 °F (2012)
Cooling Degree Days 14    
Growing Degree Days 28 (Base 50)    
Moisture  
Dew Point 66 °F    
Average Humidity 69    
Maximum Humidity 94    
Minimum Humidity 37    
Precipitation  
Precipitation 0.00 in - - ()
Sea Level Pressure  
Sea Level Pressure 29.97 in    
Wind  
Wind Speed 7 mph ()    
Max Wind Speed 79 mph    
Max Gust Speed -    
Visibility 2.4 miles    
Events      
Averages and records for this station are not official NWS values.
T = Trace of Precipitation, MM = Missing Value Source: Averaged Metar Reports

Daily Weather History Graph

Daily Weather History Graph

Search for Another Location

Airport or City:

Trip Planner

Search our weather history database for the weather conditions in past years. The results will help you decide how hot, cold, wet, or windy it might be!

Date:

Astronomy

Jan. 17, 2013 Rise Set
Actual Time 6:38 AM IST 6:12 PM IST
Civil Twilight 6:15 AM IST 6:34 PM IST
Nautical Twilight 5:49 AM IST 7:00 PM IST
Astronomical Twilight 5:23 AM IST 7:26 PM IST
Moon 10:43 AM IST (1/17) 11:17 PM IST (1/17)
Length of Visible Light 12h 19m
Length of Day
11h 34m
Waxing Crescent, 33% of the Moon is Illuminated
Jan 17
Waxing Crescent
Jan 19
First Quarter
Jan 27
Full
Feb 3
Last Quarter
Feb 10
New

Hourly Weather History & Observations

Time (IST) Temp. Heat Index Dew Point Humidity Pressure Visibility Wind Dir Wind Speed Gust Speed Precip Events Conditions
12:10 AM 73.4 °F - 68.0 °F 83% 29.98 in 2.5 mi East 6.9 mph - N/A   Haze
12:40 AM 73.4 °F - 68.0 °F 83% 29.98 in 2.5 mi ENE 5.8 mph - N/A   Haze
1:10 AM 73.4 °F - 68.0 °F 83% 29.98 in 2.5 mi ENE 2.3 mph - N/A   Haze
1:40 AM 73.4 °F - 68.0 °F 83% 29.98 in 2.5 mi East 2.3 mph - N/A   Haze
2:10 AM 73.4 °F - 68.0 °F 83% 29.95 in 2.5 mi NE 4.6 mph - N/A   Haze
2:30 AM 71 °F - 67 °F 85% 29.95 in 1 mi NNE 4.6 mph - -   Haze
2:40 AM 71.6 °F - 68.0 °F 88% 29.95 in 2.5 mi NNE 5.8 mph - N/A   Haze
3:40 AM 69.8 °F - 66.2 °F 88% 29.95 in 1.9 mi North 4.6 mph - N/A   Haze
4:10 AM 69.8 °F - 66.2 °F 88% 29.95 in 1.9 mi NNE 5.8 mph - N/A   Haze
4:40 AM 69.8 °F - 68.0 °F 94% 29.95 in 1.6 mi North 6.9 mph - N/A   Haze
5:10 AM 69.8 °F - 68.0 °F 94% 29.95 in 1.6 mi North 4.6 mph - N/A   Haze
5:30 AM 70 °F - 67 °F 87% 29.96 in 1 mi NW 2.3 mph - -   Haze
5:40 AM 69.8 °F - 68.0 °F 94% 29.98 in 1.6 mi Variable 2.3 mph - N/A   Haze
6:10 AM 69.8 °F - 68.0 °F 94% 29.98 in 1.2 mi West 4.6 mph - N/A   Scattered Clouds
7:10 AM 69.8 °F - 66.2 °F 88% 30.01 in 0.7 mi WNW 4.6 mph - N/A   Scattered Clouds
8:10 AM 71.6 °F - 66.2 °F 83% 30.04 in 0.9 mi WNW 3.5 mph - N/A   Scattered Clouds
8:30 AM 73 °F - 68 °F 79% 30.03 in 1 mi NW 4.6 mph - -   Mist
8:40 AM 73.4 °F - 66.2 °F 78% 30.04 in 1.2 mi NW 4.6 mph - N/A   Haze
9:10 AM 73.4 °F - 66.2 °F 78% 30.04 in 1.2 mi NNE 4.6 mph - N/A   Haze
9:40 AM 77.0 °F - 66.2 °F 69% 30.04 in 1.2 mi North 8.1 mph - N/A   Scattered Clouds
10:10 AM 80.6 °F 82.3 °F 64.4 °F 58% 30.04 in 1.6 mi NNE 6.9 mph - N/A   Scattered Clouds
11:10 AM 84.2 °F 85.6 °F 64.4 °F 51% 30.01 in 1.9 mi NNE 6.9 mph - N/A   Haze
11:30 AM 84 °F - 65 °F 42% 30.01 in 2 mi ENE 11.5 mph - -   Haze
11:40 AM 84.2 °F 86.6 °F 66.2 °F 55% 29.98 in 2.5 mi ENE 10.4 mph - N/A   Haze
12:40 PM 86.0 °F 87.3 °F 64.4 °F 48% 29.98 in 3.7 mi NE 10.4 mph - N/A   Haze
1:10 PM 87.8 °F 89.4 °F 64.4 °F 46% 29.95 in 3.7 mi NE 9.2 mph - N/A   Haze
1:40 PM 87.8 °F 89.4 °F 64.4 °F 46% 29.95 in 3.7 mi East 11.5 mph - N/A   Haze
2:30 PM 86 °F - 64 °F 38% 29.91 in 2 mi ENE 11.5 mph - -   Haze
2:40 PM 86.0 °F 88.2 °F 66.2 °F 51% 29.92 in 3.1 mi ENE 8.1 mph - N/A   Haze
3:10 PM 86.0 °F 88.2 °F 66.2 °F 51% 29.92 in 3.1 mi ENE 8.1 mph - N/A   Haze
3:40 PM 86.0 °F 88.2 °F 66.2 °F 51% 29.92 in 3.7 mi East 11.5 mph - N/A   Scattered Clouds
4:10 PM 86.0 °F 88.2 °F 66.2 °F 51% 29.92 in 3.7 mi East 9.2 mph - N/A   Scattered Clouds
4:40 PM 86.0 °F 88.2 °F 66.2 °F 51% 29.92 in 3.7 mi East 11.5 mph - N/A   Scattered Clouds
5:10 PM 84.2 °F 86.6 °F 66.2 °F 55% 29.92 in 3.7 mi East 10.4 mph - N/A   Partly Cloudy
5:30 PM 85 °F - 63 °F 37% 29.92 in 2 mi ENE 9.2 mph - -   Haze
5:40 PM 84.2 °F 85.6 °F 64.4 °F 51% 29.92 in 3.7 mi East 12.7 mph - N/A   Partly Cloudy
6:40 PM 82.4 °F 83.9 °F 64.4 °F 54% 29.95 in 3.1 mi East 12.7 mph - N/A   Haze
7:10 PM 80.6 °F 82.7 °F 66.2 °F 61% 29.98 in 3.1 mi East 11.5 mph - N/A   Haze
7:40 PM 78.8 °F - 66.2 °F 65% 29.98 in 3.1 mi East 10.4 mph - N/A   Haze
8:10 PM 78.8 °F - 66.2 °F 65% 29.98 in 3.1 mi East 5.8 mph - N/A   Haze
8:30 PM 77 °F - 65 °F 59% 29.97 in 2 mi East 8.1 mph - -   Haze
8:40 PM 77.0 °F - 66.2 °F 69% 29.98 in 3.1 mi East 5.8 mph - N/A   Haze
9:10 PM 77.0 °F - 66.2 °F 69% 29.98 in 3.1 mi East 79.4 mph - N/A   Haze
9:40 PM 75.2 °F - 66.2 °F 73% 29.98 in 3.1 mi East 3.5 mph - N/A   Haze
10:10 PM 75.2 °F - 66.2 °F 73% 29.98 in 3.1 mi East 3.5 mph - N/A   Haze
10:40 PM 73.4 °F - 66.2 °F 78% 29.98 in 3.1 mi NE 3.5 mph - N/A   Haze
11:10 PM 73.4 °F - 68.0 °F 83% 29.98 in 2.5 mi NE 3.5 mph - N/A   Haze
11:30 PM 72 °F - 67 °F 79% 29.97 in 1 mi ENE 4.6 mph - -   Haze
11:40 PM 71.6 °F - 68.0 °F 88% 29.95 in 2.5 mi NNE 4.6 mph - N/A   Haze